sat.trackr.live / text

‹ back to catalog

QIANFAN-86

NORAD 63172 · 2025-046P

PAYLOAD ACTIVE UNKNOWN

§ Identity

Operator
Country
PRC
Launch date
2025-03-11
Launch site
WSC
Launch vehicle
Mass (kg)
RCS (m²)

External: N2YO · Heavens-Above · Gunter

§ Orbital elements

Epoch: 2026-05-25T03:53:32.822016Z

Period
106.59 min
Inclination
88.9692°
Eccentricity
0.0011640
Mean motion
13.51012452 rev/d
Perigee alt
1,059.9 km
Apogee alt
1,077.2 km
Semi-major
7,446.7 km
B*
4.3141e-5
RAAN
302.8453°
Arg perigee
29.6045°
Mean anomaly
330.5763°
Rev number
6,961

§ Raw data

QIANFAN-861 63172U 25046P   26145.16218544  .00000040  00000+0  43141-4 0  99952 63172  88.9692 302.8453 0011640  29.6045 330.5763 13.51012452 69619

JSON: /api/v1/satellites/63172 · /tle

For live sub-satellite position, see the globe view (requires WebGL).

§ Visibility from observer

Set your observer location to see the next 7 days of passes ≥ 10°. The values pass through the URL so the page stays shareable.

No JS? Fill the form by hand. The geolocation button needs JavaScript.